• în România
  • Lista ţărilor
  • Pe 7 zile
  • Temperatura apei
  • Hartă satelitară
  • Meteo pe hartă
  • Widget-uri
  • user-avatar
    Intrare

    Meteo pe oră la Zielenice

    Astăzi, 22 Octombrie, Luni

    Timp Temperatura Precipitaţii Vânt Presiune Umiditate
    00:00 +5°C° 0 mm 0 m/s 747 mmHg 85%
    01:00 +6°C° 0 mm 1 m/s 747 mmHg 88%
    02:00 +5°C° 0 mm 0 m/s 747 mmHg 88%
    03:00 +4°C° 0 mm 0 m/s 747 mmHg 89%
    04:00 +4°C° 0 mm 0 m/s 746 mmHg 89%
    05:00 +4°C° 0 mm 0 m/s 746 mmHg 89%
    06:00 +4°C° 0 mm 0 m/s 746 mmHg 89%
    07:00 +5°C° 0 mm 0 m/s 746 mmHg 84%
    08:00 +7°C° 0 mm 0 m/s 746 mmHg 77%
    09:00 +8°C° 0 mm 0 m/s 746 mmHg 70%
    10:00 +11°C° 0 mm 1 m/s 746 mmHg 62%
    11:00 +12°C° 0 mm 1 m/s 745 mmHg 58%
    12:00 +13°C° 0 mm 1 m/s 745 mmHg 54%
    13:00 +12°C° 0 mm 1 m/s 745 mmHg 54%
    14:00 +12°C° 0 mm 1 m/s 745 mmHg 56%
    15:00 +12°C° 0 mm 2 m/s 744 mmHg 57%
    16:00 +10°C° 0 mm 2 m/s 744 mmHg 59%
    17:00 +10°C° 0 mm 2 m/s 744 mmHg 62%
    18:00 +9°C° 0 mm 2 m/s 744 mmHg 65%
    19:00 +8°C° 0 mm 2 m/s 744 mmHg 68%
    20:00 +8°C° 0.1 mm 3 m/s 744 mmHg 70%
    21:00 +8°C° 0.1 mm 3 m/s 744 mmHg 71%
    22:00 +9°C° 0.1 mm 3 m/s 744 mmHg 72%
    23:00 +7°C° 0.1 mm 4 m/s 744 mmHg 75%

    Mâine, 23 Octombrie, Marţi

    Timp Temperatura Precipitaţii Vânt Presiune Umiditate
    00:00 +7°C° 0.1 mm 4 m/s 744 mmHg 78%
    01:00 +7°C° 0.1 mm 4 m/s 744 mmHg 81%
    02:00 +6°C° 0 mm 4 m/s 744 mmHg 84%
    03:00 +5°C° 0 mm 4 m/s 744 mmHg 86%
    04:00 +4°C° 0 mm 4 m/s 743 mmHg 89%
    05:00 +4°C° 0 mm 4 m/s 743 mmHg 89%
    06:00 +4°C° 0 mm 4 m/s 742 mmHg 89%
    07:00 +4°C° 0 mm 4 m/s 742 mmHg 88%
    08:00 +5°C° 0 mm 5 m/s 741 mmHg 78%
    09:00 +5°C° 0 mm 6 m/s 741 mmHg 69%
    10:00 +8°C° 0 mm 6 m/s 740 mmHg 59%
    11:00 +8°C° 0.2 mm 7 m/s 739 mmHg 59%
    12:00 +7°C° 0.2 mm 8 m/s 738 mmHg 59%
    13:00 +7°C° 0.2 mm 8 m/s 737 mmHg 60%
    14:00 +7°C° 0.4 mm 9 m/s 736 mmHg 62%
    15:00 +6°C° 0.4 mm 9 m/s 735 mmHg 65%
    16:00 +6°C° 0.4 mm 10 m/s 734 mmHg 68%
    17:00 +6°C° 0.5 mm 10 m/s 733 mmHg 71%
    18:00 +6°C° 0.5 mm 10 m/s 733 mmHg 75%
    19:00 +7°C° 0.5 mm 10 m/s 732 mmHg 78%
    20:00 +7°C° 0.8 mm 10 m/s 731 mmHg 79%
    21:00 +7°C° 0.8 mm 10 m/s 730 mmHg 80%
    22:00 +8°C° 0.8 mm 10 m/s 729 mmHg 81%
    23:00 +8°C° 1.2 mm 10 m/s 728 mmHg 81%

    Poimâine, 24 Octombrie, Miercuri

    Timp Temperatura Precipitaţii Vânt Presiune Umiditate
    00:00 +8°C° 1.2 mm 10 m/s 728 mmHg 81%
    01:00 +9°C° 1.2 mm 10 m/s 727 mmHg 82%
    02:00 +8°C° 1.8 mm 11 m/s 726 mmHg 82%
    03:00 +8°C° 1.8 mm 11 m/s 725 mmHg 82%
    04:00 +8°C° 1.8 mm 11 m/s 724 mmHg 82%
    05:00 +7°C° 0.8 mm 11 m/s 725 mmHg 77%
    06:00 +6°C° 0.8 mm 11 m/s 726 mmHg 72%
    07:00 +3°C° 0.8 mm 11 m/s 727 mmHg 67%
    08:00 +4°C° 0.2 mm 11 m/s 727 mmHg 61%
    09:00 +4°C° 0.2 mm 11 m/s 728 mmHg 54%
    10:00 +4°C° 0.2 mm 11 m/s 729 mmHg 48%
    11:00 +4°C° 0 mm 11 m/s 729 mmHg 46%
    12:00 +6°C° 0 mm 11 m/s 730 mmHg 45%
    13:00 +6°C° 0 mm 11 m/s 730 mmHg 43%
    14:00 +4°C° 0 mm 11 m/s 730 mmHg 44%
    15:00 +5°C° 0 mm 10 m/s 731 mmHg 45%
    16:00 +5°C° 0 mm 9 m/s 732 mmHg 47%
    17:00 +3°C° 0 mm 9 m/s 732 mmHg 48%
    18:00 +3°C° 0 mm 9 m/s 733 mmHg 49%
    19:00 +2°C° 0 mm 8 m/s 734 mmHg 51%
    20:00 +2°C° 0 mm 8 m/s 734 mmHg 53%
    21:00 +2°C° 0 mm 8 m/s 734 mmHg 55%
    22:00 +1°C° 0 mm 8 m/s 735 mmHg 57%
    23:00 +2°C° 0 mm 7 m/s 735 mmHg 60%

    25 Octombrie, Joi

    Timp Temperatura Precipitaţii Vânt Presiune Umiditate
    00:00 +2°C° 0 mm 7 m/s 736 mmHg 63%
    01:00 +2°C° 0 mm 7 m/s 736 mmHg 67%
    02:00 +1°C° 0 mm 6 m/s 736 mmHg 68%
    03:00 +1°C° 0 mm 6 m/s 736 mmHg 70%
    04:00 +1°C° 0 mm 6 m/s 736 mmHg 72%
    05:00 +1°C° 0 mm 6 m/s 736 mmHg 72%
    06:00 +2°C° 0 mm 6 m/s 735 mmHg 73%
    07:00 +2°C° 0 mm 6 m/s 735 mmHg 73%
    08:00 +2°C° 0.5 mm 6 m/s 734 mmHg 76%
    09:00 +3°C° 0.5 mm 7 m/s 733 mmHg 78%
    10:00 +3°C° 0.5 mm 7 m/s 733 mmHg 81%
    11:00 +5°C° 0.3 mm 8 m/s 732 mmHg 81%
    12:00 +6°C° 0.3 mm 8 m/s 731 mmHg 82%
    13:00 +8°C° 0.3 mm 9 m/s 731 mmHg 82%
    14:00 +8°C° 0.4 mm 9 m/s 731 mmHg 81%
    15:00 +8°C° 0.4 mm 9 m/s 731 mmHg 81%
    16:00 +8°C° 0.4 mm 9 m/s 731 mmHg 80%
    17:00 +7°C° 0.3 mm 8 m/s 732 mmHg 79%
    18:00 +6°C° 0.3 mm 7 m/s 732 mmHg 79%
    19:00 +6°C° 0.3 mm 7 m/s 733 mmHg 78%
    20:00 +5°C° 0 mm 6 m/s 733 mmHg 79%
    21:00 +5°C° 0 mm 6 m/s 733 mmHg 80%
    22:00 +5°C° 0 mm 5 m/s 734 mmHg 81%
    23:00 +5°C° 0 mm 5 m/s 734 mmHg 82%

    26 Octombrie, Vineri

    Timp Temperatura Precipitaţii Vânt Presiune Umiditate
    00:00 +5°C° 0 mm 5 m/s 734 mmHg 84%
    01:00 +5°C° 0 mm 5 m/s 735 mmHg 85%
    02:00 +3°C° 0 mm 5 m/s 735 mmHg 86%
    03:00 +4°C° 0 mm 4 m/s 735 mmHg 86%
    04:00 +4°C° 0 mm 4 m/s 735 mmHg 87%
    05:00 +4°C° 0 mm 4 m/s 735 mmHg 88%
    06:00 +4°C° 0 mm 4 m/s 735 mmHg 89%
    07:00 +4°C° 0 mm 3 m/s 735 mmHg 89%
    08:00 +5°C° 0 mm 4 m/s 735 mmHg 83%
    09:00 +7°C° 0 mm 4 m/s 735 mmHg 77%
    10:00 +8°C° 0 mm 4 m/s 735 mmHg 71%
    11:00 +10°C° 0 mm 4 m/s 735 mmHg 71%
    12:00 +10°C° 0 mm 4 m/s 735 mmHg 71%
    13:00 +11°C° 0 mm 4 m/s 734 mmHg 70%
    14:00 +11°C° 0 mm 4 m/s 734 mmHg 73%
    15:00 +10°C° 0 mm 3 m/s 734 mmHg 75%
    16:00 +10°C° 0 mm 2 m/s 733 mmHg 77%
    17:00 +10°C° 0 mm 2 m/s 733 mmHg 79%
    18:00 +9°C° 0 mm 2 m/s 733 mmHg 81%
    19:00 +8°C° 0 mm 2 m/s 733 mmHg 84%
    20:00 +8°C° 0 mm 3 m/s 732 mmHg 84%
    21:00 +8°C° 0 mm 3 m/s 732 mmHg 84%
    22:00 +8°C° 0 mm 3 m/s 732 mmHg 84%
    23:00 +8°C° 0 mm 3 m/s 731 mmHg 85%

    27 Octombrie, Sâmbătă

    Timp Temperatura Precipitaţii Vânt Presiune Umiditate
    00:00 +8°C° 0 mm 3 m/s 731 mmHg 86%
    01:00 +8°C° 0 mm 3 m/s 730 mmHg 87%
    02:00 +8°C° 0 mm 2 m/s 730 mmHg 88%
    03:00 +8°C° 0 mm 2 m/s 730 mmHg 89%
    04:00 +8°C° 0 mm 2 m/s 729 mmHg 89%
    05:00 +8°C° 0 mm 2 m/s 729 mmHg 90%
    06:00 +8°C° 0 mm 2 m/s 729 mmHg 90%
    07:00 +8°C° 0 mm 2 m/s 729 mmHg 91%
    08:00 +9°C° 0 mm 2 m/s 729 mmHg 85%
    09:00 +10°C° 0 mm 2 m/s 729 mmHg 79%
    10:00 +12°C° 0 mm 3 m/s 729 mmHg 73%
    11:00 +12°C° 0.3 mm 2 m/s 729 mmHg 75%
    12:00 +12°C° 0.3 mm 2 m/s 729 mmHg 76%
    13:00 +12°C° 0.3 mm 2 m/s 729 mmHg 77%
    14:00 +10°C° 1.2 mm 2 m/s 729 mmHg 81%
    15:00 +9°C° 1.2 mm 2 m/s 729 mmHg 84%
    16:00 +8°C° 1.2 mm 3 m/s 729 mmHg 88%
    17:00 +8°C° 0.5 mm 2 m/s 729 mmHg 88%
    18:00 +7°C° 0.5 mm 2 m/s 729 mmHg 88%
    19:00 +8°C° 0.5 mm 1 m/s 729 mmHg 87%
    20:00 +8°C° 0.4 mm 1 m/s 729 mmHg 86%
    21:00 +7°C° 0.4 mm 2 m/s 729 mmHg 85%
    22:00 +7°C° 0.4 mm 2 m/s 729 mmHg 84%
    23:00 +6°C° 0.9 mm 2 m/s 728 mmHg 82%

    28 Octombrie, Duminică

    Timp Temperatura Precipitaţii Vânt Presiune Umiditate
    00:00 +5°C° 0.9 mm 3 m/s 728 mmHg 81%
    01:00 +5°C° 0.9 mm 3 m/s 728 mmHg 80%
    02:00 +4°C° 1 mm 3 m/s 727 mmHg 81%
    03:00 +4°C° 1 mm 4 m/s 727 mmHg 82%
    04:00 +4°C° 1 mm 4 m/s 727 mmHg 83%
    05:00 +4°C° 0.7 mm 3 m/s 727 mmHg 83%
    06:00 +4°C° 0.7 mm 3 m/s 727 mmHg 84%
    07:00 +4°C° 0.7 mm 3 m/s 727 mmHg 84%
    08:00 +4°C° 0.2 mm 3 m/s 727 mmHg 84%
    09:00 +5°C° 0.2 mm 2 m/s 728 mmHg 83%
    10:00 +5°C° 0.2 mm 2 m/s 728 mmHg 83%
    11:00 +5°C° 0.2 mm 2 m/s 729 mmHg 82%
    12:00 +4°C° 0.2 mm 3 m/s 730 mmHg 81%
    13:00 +5°C° 0.2 mm 4 m/s 730 mmHg 80%
    14:00 +4°C° 0 mm 3 m/s 731 mmHg 80%
    15:00 +4°C° 0 mm 3 m/s 732 mmHg 79%
    16:00 +5°C° 0 mm 2 m/s 733 mmHg 78%
    17:00 +4°C° 0 mm 2 m/s 734 mmHg 81%
    18:00 +4°C° 0 mm 2 m/s 734 mmHg 84%
    19:00 +3°C° 0 mm 2 m/s 735 mmHg 86%
    20:00 +3°C° 0 mm 2 m/s 736 mmHg 87%
    21:00 +3°C° 0 mm 2 m/s 736 mmHg 88%
    22:00 +2°C° 0 mm 2 m/s 737 mmHg 88%
    23:00 +2°C° 0 mm 2 m/s 737 mmHg 89%
    Arată mai mult